[[{"header":{"parameterUnit":"m.s-1","parameterCategory":1,"la1":30.2991,"la2":30.254,"lo1":-89.0895,"lo2":-89.0444,"dy":0.0017,"dx":0.0017,"nx":28,"ny":28,"refTime":"2026-02-05T09:00:00:Z","depth":0,"parameterNumber":2,"parameterNumberName":"U-component_of_WINDS"},"data":[0,0,0,0,0,0,0,0,0,0,0,0,0,0,0,0,0,0,0,0,0,0,0,0,0,0,0,0,0,0,0,0,0,0,0,0,0,0,0,0,0,0,0,0,0,0,0,0,0,0,0,0,0,0,0,0,0,0,6.6797,6.6799,0,6.6992,6.6994,6.6996,6.6951,6.6947,6.6943,6.6939,6.7144,6.7153,6.7162,0,0,0,0,0,0,0,0,0,0,0,0,0,6.6391,6.6399,6.6797,6.6799,6.6802,6.6991,6.6994,6.6997,6.6951,6.6947,6.6942,6.6938,6.7141,6.7152,6.7162,0,0,0,0,0,0,0,0,0,0,0,0,0,6.6575,6.6401,6.6796,6.6802,6.6804,6.6991,6.6994,6.6997,6.6952,6.6946,6.6941,6.6936,6.7138,6.7151,6.7164,6.7359,0,0,6.7205,6.7211,0,0,0,0,0,0,0,0,6.6564,6.659,6.6798,6.6802,6.6805,6.6941,6.6926,6.7119,6.6954,6.6896,6.6939,6.6933,6.7081,6.7099,6.7148,6.7368,6.7377,6.7206,6.7214,6.722,6.7224,0,0,0,0,0,0,0,6.6552,6.6581,6.6874,6.6802,6.6805,6.6796,6.6816,6.6962,6.7018,6.6901,6.6898,6.6921,6.7082,6.7135,6.7152,6.738,6.7206,6.7217,6.7226,6.7231,6.7772,6.7778,0,0,0,0,0,0,6.6536,6.6571,6.6868,6.688,6.6668,6.6808,6.683,6.6903,6.7016,6.7028,6.6926,6.6918,6.7115,6.7137,6.716,6.7396,6.722,6.7232,6.724,6.7766,6.7774,6.7781,0,0,0,0,0,0,6.6527,6.6562,6.686,6.6725,6.6762,6.6821,6.6903,6.691,6.6963,6.7035,6.7045,6.697,6.7112,6.7141,6.731,6.7402,6.7238,6.7251,6.7759,6.7768,6.7777,6.787,0,0,0,0,0,0,6.6516,6.656,6.6633,6.6726,6.6769,6.7005,6.6909,6.6918,6.6985,6.6978,6.7079,6.709,6.7109,6.729,6.7323,6.7418,6.7261,6.775,6.7763,6.7774,6.7859,6.7882,6.7901,0,0,0,0,0,6.6501,6.6652,6.6637,6.6673,6.6861,6.701,6.7035,6.7052,6.6993,6.7068,6.7115,6.7087,6.7387,6.7308,6.7344,6.7445,6.7745,6.7759,6.7773,6.785,6.7877,6.79,0,0,0,0,0,0,6.6569,6.6664,6.6648,6.6834,6.6914,6.7002,6.7097,6.7081,6.7181,6.717,6.7189,6.7212,6.7385,6.7432,6.7341,6.7641,6.7558,6.758,6.7603,6.763,6.765,6.7636,6.7272,0,0,0,0,0,6.6605,6.6716,6.6794,6.6951,6.6992,6.7038,6.7103,6.711,6.7195,6.7229,6.7288,6.7373,6.7486,6.7561,6.7669,6.7866,6.7888,6.7953,6.7974,6.7991,6.801,6.8119,6.815,6.7827,6.7827,6.7827,0,0,6.6682,6.6747,6.6817,6.6966,6.7029,6.7146,6.7067,6.7193,6.7281,6.7249,6.7411,6.7458,6.7555,6.7738,6.7823,6.7783,6.8104,6.8009,6.8022,6.8032,6.8137,6.8168,6.8195,6.7837,6.7835,6.7834,0,0,6.688,6.6941,6.7078,6.7143,6.7239,6.7269,6.7302,6.7394,6.7423,6.7587,6.7565,6.7671,6.7865,6.7935,6.7996,6.8224,6.8203,6.8259,6.8368,6.8474,6.85,6.8522,6.8604,6.8633,6.8278,6.8278,6.8278,0,6.6963,6.7136,6.7151,6.728,6.7347,6.7322,6.7462,6.7525,6.7653,6.7701,6.7654,6.7899,6.7962,6.8163,6.8218,6.8268,6.8308,6.8247,6.8495,6.8517,6.8539,6.8617,6.8648,6.8284,6.8283,6.8283,6.8282,0,6.7235,6.7355,6.7455,6.7577,6.7656,6.779,6.7826,6.7904,6.7905,6.794,6.8108,6.8183,6.8307,6.8355,6.8357,6.8557,6.853,6.8489,6.8406,6.8575,6.8649,6.868,6.8293,6.8291,6.8289,6.8287,0,0,6.748,6.761,6.7646,6.7702,6.7807,6.7902,6.8036,6.8155,6.8223,6.8312,6.8426,6.8592,6.8555,6.8625,6.8635,6.8728,6.8905,6.8676,6.8679,6.8716,6.9131,6.9161,6.9195,6.8891,6.8897,6.8902,6.9123,0,6.7689,6.7922,6.794,6.8152,6.8265,6.8244,6.8361,6.844,6.8477,6.858,6.8622,6.874,6.8682,6.8724,6.8815,6.8864,6.8988,6.8848,6.8999,6.9004,6.8975,6.9234,6.9265,6.947,6.9152,6.9157,6.9161,0,6.7963,6.8059,6.8282,6.8373,6.8421,6.8525,6.8637,6.8735,6.8825,6.8845,6.8924,6.8921,6.9061,6.8974,6.9168,6.9072,6.9135,6.9169,6.9177,6.9192,6.9092,6.9256,6.9536,6.9567,6.9206,6.9203,6.9199,0,6.812,6.8306,6.8464,6.8512,6.8622,6.8696,6.8746,6.8829,6.8901,6.8999,6.9046,6.916,6.9223,6.9313,6.9342,6.9275,6.9536,6.945,6.9559,6.9558,6.9614,6.961,6.9909,6.9655,6.9654,6.9654,6.9653,0,6.8351,6.8488,6.8536,6.8633,6.8787,6.8807,6.896,6.9005,6.908,6.9187,6.9177,6.9278,6.9311,6.9418,6.9443,6.96,6.9629,6.9651,6.9656,6.9652,6.9649,6.9693,6.968,6.9662,6.966,6.9659,6.9657,0,6.8552,6.859,6.876,6.885,6.8876,6.8986,6.9064,6.9158,6.9194,6.933,6.9363,6.942,6.9546,6.9585,6.9737,6.9753,6.9938,6.993,6.9907,6.9908,7.0014,7.0004,7.0351,7.0399,7.0114,7.0116,7.0119,0,6.8697,6.8802,6.8903,6.8973,6.9026,6.9139,6.9212,6.9237,6.9313,6.9424,6.9506,6.963,6.973,6.9933,6.999,7.0107,7.0102,7.0216,7.0119,7.0112,7.0104,7.0097,7.0108,7.0234,7.0237,7.0239,7.0241,0,6.895,6.8964,6.9068,6.918,6.9266,6.9355,6.9441,6.95,6.9538,6.9625,6.9753,6.9831,6.9986,7.011,7.0229,7.0282,7.0269,7.0271,7.0302,7.0299,7.0282,7.0293,6.9957,7.0263,7.0261,7.0259,7.0258,7.0257,6.9128,6.9221,6.9307,6.9424,6.9491,6.9572,6.9665,6.9713,6.982,6.9947,6.9956,7.0095,7.0184,7.0342,7.0401,7.0512,7.0479,7.0524,7.0536,7.0546,7.0555,7.0264,7.0534,7.0533,7.0533,7.0532,7.0532,0,6.9381,6.9435,6.9543,6.9663,6.9756,6.9734,6.9829,6.9908,7.003,7.0113,7.0212,7.036,7.0481,7.0547,7.0668,7.0744,7.0741,7.0775,7.077,7.0783,7.0577,7.0538,7.0776,7.0775,7.0775,7.0775,7.0775,7.0775,6.9523,6.9679,6.9703,6.9894,6.9948,7.0082,7.0138,7.0214,7.0281,7.0446,7.0545,7.0587,7.0665,7.0792,7.0902,7.0919,7.0964,7.1002,7.1015,7.0822,7.0797,7.0773,7.0736,7.1011,7.1012,7.1211,7.1213,7.1214]},{"header":{"parameterUnit":"m.s-1","parameterCategory":1,"la1":30.2991,"la2":30.254,"lo1":-89.0895,"lo2":-89.0444,"dy":0.0017,"dx":0.0017,"nx":28,"ny":28,"refTime":"2026-02-05T09:00:00:Z","depth":0,"parameterNumber":3,"parameterNumberName":"V-component_of_WINDS"},"data":[0,0,0,0,0,0,0,0,0,0,0,0,0,0,0,0,0,0,0,0,0,0,0,0,0,0,0,0,0,0,0,0,0,0,0,0,0,0,0,0,0,0,0,0,0,0,0,0,0,0,0,0,0,0,0,0,0,0,1.0775,1.0776,0,1.083,1.0831,1.0832,1.0809,1.0807,1.0806,1.0805,1.0862,1.0864,1.0867,0,0,0,0,0,0,0,0,0,0,0,0,0,1.0651,1.0653,1.0775,1.0776,1.0777,1.083,1.0831,1.0832,1.0809,1.0807,1.0806,1.0804,1.0861,1.0864,1.0867,0,0,0,0,0,0,0,0,0,0,0,0,0,1.0705,1.0654,1.0775,1.0772,1.0772,1.083,1.0831,1.0832,1.0809,1.0807,1.0805,1.0803,1.086,1.0864,1.0868,1.0933,0,0,1.088,1.0882,0,0,0,0,0,0,0,0,1.0702,1.071,1.0772,1.0772,1.0772,1.0811,1.0808,1.0866,1.081,1.0795,1.0805,1.0802,1.0846,1.0851,1.0866,1.0935,1.0938,1.0881,1.0883,1.0885,1.0886,0,0,0,0,0,0,0,1.0698,1.0707,1.0797,1.0773,1.0773,1.0767,1.0773,1.0819,1.0831,1.0796,1.0795,1.0801,1.0846,1.0862,1.0867,1.0939,1.0881,1.0884,1.0887,1.0888,1.1063,1.1066,0,0,0,0,0,0,1.0695,1.0704,1.0795,1.0799,1.0732,1.0771,1.0777,1.08,1.0831,1.0833,1.0803,1.08,1.0856,1.0862,1.0869,1.0947,1.0885,1.0889,1.0891,1.1061,1.1064,1.1066,0,0,0,0,0,0,1.0692,1.0703,1.0793,1.0751,1.0762,1.0776,1.0801,1.0802,1.0818,1.0836,1.0838,1.0817,1.0855,1.0863,1.0917,1.0949,1.0891,1.0894,1.1059,1.1062,1.1065,1.1104,0,0,0,0,0,0,1.0688,1.0702,1.0727,1.0752,1.0765,1.084,1.0803,1.0805,1.0826,1.0822,1.085,1.0852,1.0854,1.0911,1.0921,1.0954,1.0898,1.1056,1.106,1.1064,1.11,1.1108,1.1115,0,0,0,0,0,1.0684,1.0736,1.0728,1.074,1.0796,1.0842,1.0849,1.085,1.0828,1.0853,1.0864,1.0851,1.0943,1.0917,1.0928,1.0962,1.1054,1.1059,1.1064,1.1097,1.1107,1.1115,0,0,0,0,0,0,1.0715,1.0739,1.0731,1.0793,1.0816,1.0838,1.087,1.0861,1.0891,1.0886,1.0886,1.0892,1.0948,1.096,1.093,1.1026,1.0995,1.1003,1.1016,1.1026,1.1034,1.103,1.0901,0,0,0,0,0,1.0729,1.0765,1.0784,1.0836,1.0848,1.0857,1.0877,1.0876,1.0899,1.0909,1.0924,1.0948,1.0982,1.1004,1.1037,1.1101,1.1107,1.113,1.1138,1.1144,1.1151,1.1185,1.1196,1.1082,1.1082,1.1082,0,0,1.0759,1.0776,1.0799,1.0843,1.086,1.0897,1.0865,1.0906,1.0933,1.0915,1.0967,1.0978,1.1005,1.1064,1.1091,1.1076,1.1183,1.115,1.1155,1.1158,1.1191,1.1202,1.1212,1.1086,1.1085,1.1085,0,0,1.0831,1.0848,1.0893,1.0911,1.0938,1.0943,1.0954,1.0978,1.0985,1.1037,1.1024,1.1056,1.1115,1.1134,1.1152,1.123,1.1219,1.124,1.1281,1.1315,1.1324,1.1332,1.136,1.137,1.1247,1.1247,1.1247,0,1.0865,1.0919,1.0918,1.0959,1.0979,1.0964,1.101,1.1027,1.1063,1.1077,1.106,1.1133,1.115,1.1213,1.1232,1.1246,1.1259,1.1238,1.1322,1.133,1.1338,1.1365,1.1376,1.1249,1.1249,1.1249,1.1249,0,1.0959,1.0997,1.1031,1.1066,1.1089,1.1132,1.1137,1.1161,1.1157,1.1164,1.1217,1.1236,1.1272,1.1286,1.1283,1.1349,1.1339,1.1322,1.1291,1.1351,1.1377,1.1387,1.1253,1.1252,1.1251,1.1251,0,0,1.1055,1.1087,1.1099,1.1115,1.1142,1.1172,1.1214,1.1249,1.1269,1.1294,1.133,1.1379,1.1364,1.1383,1.1382,1.1411,1.1472,1.1391,1.1391,1.1406,1.1547,1.156,1.1572,1.1465,1.1467,1.1468,1.1545,0,1.113,1.1204,1.1204,1.1272,1.1308,1.1293,1.133,1.1351,1.1358,1.1389,1.1397,1.1432,1.1409,1.142,1.1449,1.1459,1.1501,1.1453,1.1498,1.15,1.1493,1.1585,1.16,1.1671,1.1554,1.1556,1.1557,0,1.1228,1.1255,1.1328,1.135,1.1364,1.1398,1.1429,1.1459,1.1482,1.1485,1.1506,1.15,1.1543,1.151,1.1569,1.1536,1.1554,1.1562,1.1565,1.157,1.1533,1.1594,1.1694,1.1705,1.1573,1.1572,1.1571,0,1.1291,1.1346,1.1396,1.141,1.1437,1.146,1.1473,1.1494,1.1514,1.1541,1.1555,1.1587,1.1605,1.1629,1.1631,1.1607,1.1691,1.1658,1.1695,1.1695,1.1715,1.1714,1.182,1.1725,1.1725,1.1724,1.1724,0,1.1375,1.142,1.1425,1.1456,1.1506,1.1504,1.1554,1.1564,1.1582,1.1615,1.1604,1.1635,1.1635,1.1667,1.1668,1.1717,1.1725,1.1729,1.1729,1.1731,1.173,1.1743,1.1739,1.1727,1.1727,1.1726,1.1726,0,1.1455,1.146,1.1514,1.1534,1.154,1.1576,1.1594,1.1623,1.1629,1.167,1.168,1.1689,1.1726,1.173,1.1772,1.1773,1.1832,1.1827,1.1825,1.1824,1.1862,1.1858,1.1981,1.1997,1.189,1.1891,1.1892,0,1.1509,1.1543,1.1567,1.1588,1.1602,1.1636,1.1656,1.1656,1.1678,1.1706,1.1732,1.1767,1.1796,1.1854,1.1865,1.1897,1.1893,1.1933,1.1897,1.1898,1.1894,1.1892,1.1896,1.1941,1.1942,1.1943,1.1944,0,1.1605,1.1605,1.1636,1.1667,1.1692,1.1717,1.174,1.1758,1.176,1.1785,1.1822,1.1844,1.1887,1.1922,1.1953,1.1966,1.1955,1.1954,1.1965,1.1968,1.1965,1.1968,1.1845,1.1952,1.1951,1.1951,1.195,1.195,1.1674,1.1704,1.1725,1.1759,1.1776,1.1798,1.1827,1.1836,1.1866,1.1901,1.1899,1.1939,1.1961,1.2002,1.2016,1.2048,1.2035,1.205,1.2054,1.2058,1.2062,1.1959,1.2054,1.2053,1.2053,1.2053,1.2053,0,1.177,1.1783,1.1814,1.1846,1.1873,1.186,1.1885,1.1908,1.1944,1.1965,1.1992,1.2035,1.2068,1.2081,1.2114,1.2137,1.2133,1.2145,1.2144,1.2147,1.2072,1.206,1.2148,1.2148,1.2148,1.2148,1.2148,1.2148,1.1823,1.1873,1.1875,1.1933,1.1945,1.1985,1.2,1.202,1.2037,1.2084,1.2112,1.212,1.2137,1.2171,1.2201,1.2204,1.2217,1.2232,1.2233,1.2162,1.2153,1.2143,1.2132,1.2234,1.2235,1.2306,1.2306,1.2307]}]]